User: anonymous   Login
Location: Unspecified
(0.0000°N, 0.0000°E)
Time: 18:24:43
(UTC+02:00)
Language:

Ariane 42L R/B - Orbit

View from above orbital plane
View from above orbital plane
View from above satellite
View from above satellite

Ground track
Ground track

The orbit data is extracted from the following two-line orbital elements,

1 26299U 00020B   17147.51492757 +.00001051 +00000-0 +40658-3 0  9993
2 26299 007.4861 322.7734 5923786 194.4910 135.8565 04.11438159218248
Epoch (UTC): 27 May 2017 12:21:29
Eccentricity: 0.5923786
inclination: 7.4861°
perigee height: 328 km
apogee height: 19818 km
right ascension of ascending node: 322.7734°
argument of perigee: 194.4910°
revolutions per day: 4.11438159
mean anomaly at epoch: 135.8565°
orbit number at epoch: 21824

The dashed part of the orbit path shows where the satellite is in the earth's shadow,  

DLR